Location: Newark
(49.2191°N, 12.6671°E)
Time: 09:03:39
(UTC+00:00)

S-56A Canister/Altair - Visible Passes

Search period start: 29 January 2020 00:00
Search period end: 08 February 2020 00:00
Orbit: 634 x 2498 km, 38.9° (Epoch: 28 January)

Date Brightness Start Highest point End Pass type
(mag) Time Alt. Az. Time Alt. Az. Time Alt. Az.
29 Jan 10.1 16:31:50 10° S 16:36:27 15° SSE 16:40:19 10° ESE visible
29 Jan 9.1 18:33:39 10° SW 18:39:52 27° S 18:40:21 27° SSE visible
30 Jan 9.2 18:00:30 10° SW 18:07:13 28° SSE 18:09:32 22° SE visible
30 Jan 10.0 20:04:48 10° WSW 20:06:59 18° SW 20:06:59 18° SW visible
31 Jan 9.6 17:27:19 10° SW 17:34:32 28° SSE 17:38:43 15° ESE visible
31 Jan 9.4 19:31:38 10° WSW 19:36:09 28° SSW 19:36:09 28° SSW visible
01 Feb 9.9 16:54:05 10° SW 17:01:47 28° SSE 17:07:26 10° ESE visible
01 Feb 9.0 18:58:23 10° WSW 19:05:15 34° S 19:05:19 34° S visible
02 Feb 9.0 18:25:05 10° WSW 18:32:37 35° S 18:34:28 30° SSE visible
02 Feb 10.3 20:30:24 10° WSW 20:31:54 15° WSW 20:31:54 15° WSW visible
03 Feb 9.3 17:51:43 10° WSW 17:59:55 37° S 18:03:38 21° SE visible
03 Feb 9.7 19:57:06 10° WSW 20:01:04 24° SW 20:01:04 24° SW visible
04 Feb 9.5 17:18:17 10° WSW 17:27:11 38° S 17:32:47 13° ESE visible
04 Feb 9.3 19:23:45 10° WSW 19:30:13 31° SSW 19:30:13 31° SSW visible
05 Feb 9.7 16:44:48 10° SW 16:54:23 39° S 17:00:58 10° ESE visible
05 Feb 9.1 18:50:20 10° WSW 18:57:54 34° SSW 18:59:23 31° S visible
06 Feb 9.3 18:16:52 10° WSW 18:25:14 38° SSW 18:28:34 24° SE visible
06 Feb 10.2 20:23:17 10° WSW 20:25:59 16° SW 20:25:59 16° SW visible
07 Feb 9.5 17:43:19 10° WSW 17:52:30 40° S 17:57:46 15° SE visible
07 Feb 9.8 19:49:40 10° WSW 19:55:12 22° SW 19:55:12 22° SW visible
